Location: Breitenfeld
(46.8500°N, 15.6333°E)
Time: 23:50:03
(UTC+00:00)

Aureole 1 Rocket - Pass Details

Date: 09 April 2020
Orbit: 379 x 1379 km, 73.9° (Epoch: 03 June)

Event Time Altitude Azimuth Distance (km) Brightness Sun altitude
Rises 18:36:27 0° 200° (SSW) 4,194 7.3 -10.3°
Reaches altitude 10° 18:39:27 10° 200° (SSW) 3,118 6.6 -10.8°
Maximum altitude 18:46:51 90° 274° (W) 1,004 4.1 -11.9°
Drops below altitude 10° 18:52:33 10° 22° (NNE) 2,434 6.2 -12.8°
Sets 18:54:40 0° 23° (NNE) 3,230 6.8 -13.1°
